Stations météo

réclame
Mon MeteoGroup
Ronneby, Suède (2664): Température de l'air & dewpoint: 15.05.2018 19:00:00 - 21.05.2018 19:00:00 (CEST)Ronneby, Suède (2664): Vitesse du vent & gusts: 15.05.2018 19:00:00 - 21.05.2018 19:00:00 (CEST)Ronneby, Suède (2664): Direction du vent: 15.05.2018 19:00:00 - 21.05.2018 19:00:00 (CEST)Ronneby, Suède (2664): reduced air pressure: 15.05.2018 19:00:00 - 21.05.2018 19:00:00 (CEST)Ronneby, Suède (2664): visibility: 15.05.2018 19:00:00 - 21.05.2018 19:00:00 (CEST)Ronneby, Suède (2664): Quantités de précipitations: 15.05.2018 19:00:00 - 21.05.2018 19:00:00 (CEST)
Date & Time tt [°C] td [°C] ff [km/h] ff [knt] fx [km/h] fx [knt] dd ppp [hPa] vv [km] rr [mm]
21.05.2018 19:00:00 20,0 4,0 21 11 - - E - 10 -
21.05.2018 18:00:00 20,3 4,7 22 12 32 18 E 1024,8 10 0,0
21.05.2018 17:00:00 20,9 5,3 21 11 36 19 E 1025,2 10 0,0
21.05.2018 16:00:00 21,4 5,3 21 11 29 16 ESE 1025,9 10 0,0
21.05.2018 15:00:00 21,4 5,7 15 8 25 14 ESE 1026,5 10 0,0
21.05.2018 14:00:00 20,9 5,7 11 6 25 14 E 1027,2 10 0,0
21.05.2018 13:00:00 20,6 5,4 11 6 22 12 ESE 1027,8 10 0,0
21.05.2018 12:00:00 19,3 5,7 9 5 18 10 E 1028,7 10 0,0
21.05.2018 11:00:00 17,6 4,5 9 5 14 8 SE 1029,3 10 0,0
21.05.2018 10:00:00 16,7 6,2 5 3 14 8 NE 1029,4 10 0,0
21.05.2018 09:00:00 14,8 6,1 8 4 11 6 NNE 1029,5 10 0,0
21.05.2018 08:00:00 11,8 8,3 5 3 11 6 NNE 1029,6 10 0,0
21.05.2018 07:00:00 7,9 6,7 8 4 11 6 NNE 1029,6 10 0,0
21.05.2018 06:00:00 5,2 4,9 8 4 11 6 N 1029,6 10 0,0
21.05.2018 05:00:00 3,6 3,3 9 5 11 6 N 1029,4 10 0,0
21.05.2018 04:00:00 4,0 3,7 5 3 7 4 N 1029,3 10 0,0
21.05.2018 03:00:00 4,6 3,9 8 4 11 6 N 1029,2 10 0,0
21.05.2018 02:00:00 4,5 4,1 11 6 11 6 N 1029,5 10 0,0
21.05.2018 01:00:00 5,3 4,3 8 4 7 4 NNE 1029,4 10 0,0
21.05.2018 00:00:00 5,7 4,0 8 4 7 4 NNE 1029,4 10 0,0
20.05.2018 23:00:00 7,3 4,8 5 3 7 4 N 1029,2 10 0,0
20.05.2018 22:00:00 9,1 4,3 0 0 7 4 N 1029,3 10 0,0
20.05.2018 21:00:00 12,8 4,0 4 2 7 4 S 1028,8 10 0,0
20.05.2018 20:00:00 15,2 4,0 8 4 11 6 S 1028,8 10 0,0
20.05.2018 19:00:00 16,8 2,8 5 3 11 6 SSE 1028,9 10 0,0
20.05.2018 18:00:00 16,8 1,6 8 4 14 8 SSW 1028,9 10 0,0
20.05.2018 17:00:00 16,9 1,7 9 5 18 10 S 1029,1 10 0,0
20.05.2018 16:00:00 17,4 2,6 13 7 22 12 SSW 1029,4 10 0,0
20.05.2018 15:00:00 17,2 3,1 15 8 25 14 SSW 1029,5 10 0,0
20.05.2018 14:00:00 17,1 2,3 15 8 25 14 SSW 1029,7 10 0,0
20.05.2018 13:00:00 17,3 2,5 13 7 25 14 SSE 1029,8 10 0,0
20.05.2018 12:00:00 17,4 6,0 11 6 25 14 - 1029,5 10 0,0
20.05.2018 11:00:00 16,9 6,4 11 6 22 12 SSE 1029,4 40 0,0
20.05.2018 10:00:00 16,3 7,5 11 6 18 10 SE 1029,0 10 0,0
20.05.2018 09:00:00 15,2 8,9 4 2 7 4 - 1028,5 10 0,0
20.05.2018 08:00:00 12,9 9,5 5 3 7 4 SE 1028,2 10 0,0
20.05.2018 07:00:00 8,9 7,7 8 4 11 6 NNE 1028,2 10 0,0
20.05.2018 06:00:00 4,3 3,9 8 4 11 6 N 1027,8 10 0,0
20.05.2018 05:00:00 2,5 2,1 11 6 11 6 NNE 1027,7 10 0,0
20.05.2018 04:00:00 2,7 2,3 13 7 14 8 NNE 1027,6 10 0,0
20.05.2018 03:00:00 3,5 3,1 4 2 7 4 ENE 1027,2 10 0,0
20.05.2018 02:00:00 4,2 3,5 8 4 7 4 NNE 1027,1 10 0,0
20.05.2018 01:00:00 5,2 4,5 5 3 7 4 N 1026,8 10 0,0
20.05.2018 00:00:00 6,1 4,4 5 3 7 4 NE 1026,8 10 0,0
19.05.2018 23:00:00 8,0 5,1 0 0 7 4 N 1026,3 10 0,0
19.05.2018 22:00:00 9,9 4,3 5 3 7 4 SE 1026,0 10 0,0
19.05.2018 21:00:00 12,1 3,3 5 3 14 8 SSE 1025,3 10 0,0
19.05.2018 20:00:00 13,9 1,8 11 6 22 12 SSE 1025,1 10 0,0
19.05.2018 19:00:00 15,1 2,6 15 8 25 14 SSE 1024,8 10 0,0
19.05.2018 18:00:00 15,9 3,0 16 9 29 16 S 1024,5 10 0,0
19.05.2018 17:00:00 16,9 3,9 21 11 32 18 S 1024,3 10 0,0
19.05.2018 16:00:00 17,1 4,1 21 11 36 19 S 1024,2 10 0,0
19.05.2018 15:00:00 19,1 4,4 15 8 29 16 SW 1023,5 10 0,0
19.05.2018 14:00:00 19,5 4,8 16 9 25 14 WSW 1023,5 10 0,0
19.05.2018 13:00:00 18,6 5,4 9 5 18 10 W 1023,9 10 0,0
19.05.2018 12:00:00 18,0 5,9 9 5 22 12 NW 1024,1 10 0,0
19.05.2018 11:00:00 17,6 5,8 5 3 14 8 - 1024,2 10 0,0
19.05.2018 10:00:00 16,6 5,5 2 1 11 6 - 1024,2 10 0,0
19.05.2018 09:00:00 15,5 6,2 2 1 11 6 - 1024,0 10 0,0
19.05.2018 08:00:00 14,0 7,7 5 3 7 4 N 1023,7 10 0,0
19.05.2018 07:00:00 12,4 8,5 5 3 7 4 N 1023,5 10 0,0
19.05.2018 06:00:00 8,4 8,0 8 4 11 6 N 1023,2 10 0,0
19.05.2018 05:00:00 6,5 6,1 4 2 11 6 N 1022,7 10 0,0
19.05.2018 04:00:00 7,1 6,8 2 1 4 2 NW 1022,7 10 0,0
19.05.2018 03:00:00 7,7 7,1 5 3 7 4 NNE 1022,6 10 0,0
19.05.2018 02:00:00 8,7 7,5 4 2 4 2 NE 1022,3 10 0,0
19.05.2018 01:00:00 10,5 7,9 2 1 4 2 NE 1022,2 10 0,0
19.05.2018 00:00:00 10,1 8,5 4 2 4 2 - 1022,0 10 0,0
18.05.2018 23:00:00 9,1 8,0 2 1 7 4 NW 1021,8 10 0,0
18.05.2018 22:00:00 9,7 8,0 0 0 4 2 N 1021,4 10 0,0
18.05.2018 21:00:00 11,8 8,1 4 2 7 4 W 1020,9 10 0,0
18.05.2018 20:00:00 13,1 8,2 9 5 18 10 SSW 1020,1 10 0,0
18.05.2018 19:00:00 15,2 6,0 9 5 18 10 S 1019,5 10 0,0
18.05.2018 18:00:00 16,9 5,8 11 6 22 12 SW 1019,0 10 0,0
18.05.2018 17:00:00 17,5 6,7 13 7 22 12 SSW 1018,7 10 0,0
18.05.2018 16:00:00 17,2 7,0 16 9 22 12 S 1018,4 10 0,0
18.05.2018 15:00:00 18,7 7,5 11 6 22 12 - 1018,1 10 0,0
18.05.2018 14:00:00 19,6 4,9 5 3 36 19 - 1018,0 10 0,0
18.05.2018 13:00:00 19,2 5,3 13 7 29 16 NE 1017,9 10 0,0
18.05.2018 12:00:00 18,9 5,4 15 8 29 16 NE 1017,8 10 0,0
18.05.2018 11:00:00 17,7 5,0 13 7 29 16 NNE 1017,6 10 0,0
18.05.2018 10:00:00 15,6 4,6 13 7 25 14 NNE 1017,3 10 0,0
18.05.2018 09:00:00 13,6 5,5 11 6 18 10 NNE 1017,0 10 0,0
18.05.2018 08:00:00 12,2 5,6 13 7 22 12 N 1016,6 10 0,0
18.05.2018 07:00:00 11,5 6,4 11 6 22 12 N 1016,4 10 0,0
18.05.2018 06:00:00 9,1 7,1 8 4 14 8 N 1016,1 10 0,0
18.05.2018 05:00:00 7,9 6,8 8 4 14 8 NW 1015,8 10 0,0
18.05.2018 04:00:00 7,5 6,3 4 2 7 4 - 1015,8 10 0,0
18.05.2018 03:00:00 8,0 6,5 4 2 7 4 NW 1015,6 10 0,0
18.05.2018 02:00:00 10,4 6,7 5 3 22 12 NW 1015,5 10 0,0
18.05.2018 01:00:00 11,8 7,1 8 4 22 12 N 1015,2 10 0,0
18.05.2018 00:00:00 12,7 7,4 5 3 22 12 NNE 1015,2 10 0,0
17.05.2018 23:00:00 13,2 7,4 16 9 22 12 NE 1014,8 10 0,0
17.05.2018 22:00:00 14,0 8,6 11 6 18 10 E 1014,5 10 0,0
17.05.2018 21:00:00 15,6 9,3 15 8 22 12 E 1014,1 10 0,0
17.05.2018 20:00:00 18,2 12,6 5 3 18 10 WNW 1013,9 10 0,0
17.05.2018 19:00:00 18,8 10,6 4 2 22 12 - 1013,6 10 0,0
17.05.2018 18:00:00 18,7 9,2 18 10 25 14 ENE 1013,3 10 0,0
17.05.2018 17:00:00 20,5 10,6 16 9 40 21 ENE 1012,4 10 0,0
17.05.2018 16:00:00 23,0 10,4 21 11 40 21 ENE 1012,2 10 0,0
17.05.2018 15:00:00 23,0 13,5 15 8 22 12 S 1011,8 10 0,0
17.05.2018 14:00:00 22,6 13,1 13 7 22 12 S 1012,1 10 0,0
17.05.2018 13:00:00 24,2 10,5 15 8 25 14 ENE 1012,0 10 0,0
17.05.2018 12:00:00 23,6 10,3 13 7 25 14 NNE 1012,2 10 0,0
17.05.2018 11:00:00 22,5 10,6 16 9 25 14 ENE 1012,1 10 0,0
17.05.2018 10:00:00 21,3 10,2 21 11 29 16 NE 1012,0 10 0,0
17.05.2018 09:00:00 19,4 11,7 16 9 25 14 NNE 1012,0 10 0,0
17.05.2018 08:00:00 16,8 10,9 9 5 14 8 NNE 1012,3 10 0,0
17.05.2018 07:00:00 14,2 10,6 5 3 7 4 NE 1012,4 10 0,0
17.05.2018 06:00:00 - - - - - - - - - -
17.05.2018 05:00:00 8,5 8,4 9 5 11 6 NNE 1012,4 10 0,0
17.05.2018 04:00:00 7,3 7,0 2 1 4 2 - 1012,5 10 0,0
17.05.2018 03:00:00 8,8 8,5 0 0 7 4 N 1012,6 10 0,0
17.05.2018 02:00:00 9,6 9,0 4 2 7 4 N 1012,5 10 0,0
17.05.2018 01:00:00 12,3 10,5 5 3 11 6 NNE 1012,9 10 0,0
17.05.2018 00:00:00 11,0 9,4 8 4 11 6 N 1013,2 10 0,0
16.05.2018 23:00:00 11,4 9,7 5 3 7 4 N 1013,2 10 0,0
16.05.2018 22:00:00 13,3 11,4 2 1 4 2 - 1013,3 10 0,0
16.05.2018 21:00:00 14,6 11,2 2 1 7 4 N 1012,9 10 0,0
16.05.2018 20:00:00 17,6 11,4 8 4 11 6 W 1012,7 10 0,0
16.05.2018 19:00:00 19,5 11,5 2 1 14 8 - 1012,7 10 0,0
16.05.2018 18:00:00 18,6 11,2 13 7 18 10 S 1013,2 10 0,0
16.05.2018 17:00:00 20,0 10,7 9 5 22 12 S 1013,0 10 0,0
16.05.2018 16:00:00 19,8 10,5 16 9 29 16 S 1013,2 10 0,0
16.05.2018 15:00:00 26,3 8,7 9 5 25 14 ENE 1012,6 10 0,0
16.05.2018 14:00:00 22,3 12,0 11 6 25 14 S 1012,9 10 0,0
16.05.2018 13:00:00 26,0 8,0 15 8 29 16 ENE 1013,2 10 0,0
16.05.2018 12:00:00 24,0 12,0 5 3 - - SSE - 10 -
16.05.2018 11:00:00 23,9 9,8 16 9 25 14 NE 1014,0 10 0,0
16.05.2018 10:00:00 22,9 8,9 9 5 25 14 ENE 1014,2 10 0,0
16.05.2018 09:00:00 20,9 8,8 4 2 14 8 - 1014,3 10 0,0
16.05.2018 08:00:00 18,3 9,1 9 5 11 6 N 1014,5 10 0,0
16.05.2018 07:00:00 15,6 8,3 2 1 18 10 - 1014,5 10 0,0
16.05.2018 06:00:00 12,9 7,8 15 8 18 10 N 1014,4 10 0,0
16.05.2018 05:00:00 11,3 7,2 15 8 18 10 N 1014,7 10 0,0
16.05.2018 04:00:00 11,3 7,4 15 8 18 10 N 1014,8 10 0,0
16.05.2018 03:00:00 11,2 7,7 11 6 14 8 N 1015,2 10 0,0
16.05.2018 02:00:00 9,8 9,2 5 3 7 4 N 1015,7 10 0,0
16.05.2018 01:00:00 10,2 9,3 8 4 11 6 N 1016,1 10 0,0
16.05.2018 00:00:00 12,0 10,2 4 2 7 4 NNE 1016,5 10 0,0
15.05.2018 23:00:00 13,6 10,8 9 5 11 6 NW 1016,7 10 0,0
15.05.2018 22:00:00 13,6 10,6 4 2 11 6 - 1016,8 10 0,0
15.05.2018 21:00:00 16,2 10,9 4 2 14 8 - 1016,6 10 0,0
15.05.2018 20:00:00 18,8 11,1 15 8 22 12 S 1016,2 10 0,0
15.05.2018 19:00:00 24,0 8,8 13 7 25 14 ENE 1015,9 10 0,0

tt = Température de l'air
td = dewpoint
ff = Vitesse du vent
fx = gusts
dd = Direction du vent
ppp = reduced air pressure
vv = visibility
rr = Quantités de précipitations

stations d'obs. à proximité